Tracking 19576 objects as of 16-Feb-2019
HD Live streaming from Space Station
objects crossing your sky now

SL-8 DEB

Track SL-8 DEB now!
10-day predictions


NORAD ID: 24818
Int'l Code: 1977-087C
Perigee: 947.0 km
Apogee: 994.2 km
Inclination: 83.0 °
Period: 104.3 minutes
Semi major axis: 7341 km
RCS: 0.0052 m2 (small)
Launch date: September 13, 1977
Source: Commonwealth of Independent States (former USSR) (CIS)
Launch site: PLESETSK MISSILE AND SPACE COMPLEX (PKMTR)

Note: This is SATELLITE DEBRIS
aabbcc
Your satellite tracking list
Your tracking list is empty




NASA's NSSDC Master Catalog

Two Line Element Set (TLE):
1 24818U 77087C   19046.70827086  .00000077  00000-0  58779-4 0  9994
2 24818  82.9676 290.4589 0032203  50.6843   4.2265 13.80121362 81225
Source of the keplerian elements: AFSPC